Flag for Nigeria Weather past 2 weeks in Ibadan, Nigeria

Now
77 °F

Thunderstorms. Passing clouds.


Feels Like: 78 °F
Forecast: 75 / 89 °F
Wind: No wind

Location: Lagos / Ikeja

Current Time: May 29, 2015 at 5:22:31 AM

Latest Report: May 29, 2015 at 4:00 AM


Visibility: N/A

Pressure: 29.83 "Hg

Humidity: 100%

Dew point: 77 °F

Location of IbadanLocation

Historic Weather in Ibadan — Graph

°F

Ibadan temperature yesterday

Maximum temperature yesterday: 90 °F (at 2:00 PM)
Minimum temperature yesterday: 79 °F (at 5:00 AM)
Average temperature yesterday: 82 °F

Past Weeks' High & Low Weather Summary

 TemperatureHumidityPressure
High93 °F (May 19, 2:00 PM)100% (May 14, 6:00 AM)30.01 "Hg (May 14, 6:00 AM)
Low73 °F (May 23, 1:00 PM)56% (May 19, 2:00 PM)29.77 "Hg (May 14, 5:00 PM)
Average83 °F84%29.87 "Hg
* Reported May 14 4:00 AM — May 29 4:00 AM, Ibadan, Weather by CustomWeather, © 2015

Note: Actual official high and low records may vary slightly from our data, if they occured in-between our weather recording intervals... More about our weather records

Advertising

Ibadan weather history for previous 24 hours

 ConditionsComfort  
Time TempWeatherWind HumidityBarometerVisibility
4:00 AM
Fri, May 29
77 °FThunderstorms. Passing clouds.No wind100%29.83 "HgN/A
3:00 AM79 °FThunderstorms. Passing clouds.2 mph94%29.83 "HgN/A
2:00 AM79 °FThunderstorms. Passing clouds.2 mph94%29.83 "HgN/A
1:00 AM79 °FPassing clouds.2 mph89%29.86 "HgN/A
12:00 AM81 °FPassing clouds.2 mph84%29.86 "HgN/A
11:00 PM
Thu, May 28
81 °FPassing clouds.2 mph84%29.80 "HgN/A
10:00 PM81 °FPassing clouds.2 mph89%29.80 "HgN/A
9:00 PM81 °FPassing clouds.3 mph94%29.80 "HgN/A
8:00 PM82 °FPassing clouds.3 mph84%29.80 "HgN/A
7:00 PM82 °FPassing clouds.5 mph89%29.80 "HgN/A
6:00 PM86 °FPassing clouds.6 mph75%29.80 "HgN/A
5:00 PM86 °FPassing clouds.8 mph79%29.77 "HgN/A
4:00 PM88 °FPassing clouds.6 mph70%29.77 "HgN/A
3:00 PM90 °FScattered clouds.3 mph75%29.80 "HgN/A
2:00 PM90 °FScattered clouds.6 mph75%29.83 "HgN/A
1:00 PM86 °FPartly sunny.7 mph84%29.86 "HgN/A
12:00 PM82 °FPartly sunny.3 mph89%29.89 "HgN/A
11:00 AM79 °FThunderstorms. Partly sunny.2 mph94%29.92 "Hg2 mi
10:00 AM81 °FThunderstorms. Partly sunny.2 mph89%29.92 "Hg5 mi
9:00 AM79 °FThunderstorms. Partly sunny.5 mph94%29.89 "Hg4 mi
8:00 AM81 °FThunderstorms. Scattered clouds.No wind94%29.89 "Hg4 mi
7:00 AM79 °FThunderstorms. Scattered clouds.2 mph94%29.86 "Hg4 mi
6:00 AM79 °FThunderstorms. Passing clouds.2 mph94%29.86 "Hg4 mi
5:00 AM79 °FThunderstorms. Passing clouds.2 mph100%29.86 "Hg4 mi
Weather by CustomWeather, © 2015

See weather overviewHow to use our weather pages